DW6979 Svarstad NO current weather conditions

sailwx.info

Wind from 179

Air temperature -4.4° C
Dewpoint -5.0° C

Last reported at 2018-Feb-17 19:00 UTC.
Time now 2018-Feb-17 20:08 UTC

Location: N 59°26' E 010°00'.
View on Google Maps.

See reports from other nearby stations

  
Tides and Currents Weather Stations Pressure Air Temp Water Temp Dewpoint Dewpoint Depression Visibility Wind Speed Wind Dir Waves Ship Positions
date/time (UTC)wind fromknots sea level pressurealtimeterstation pressurevisibilityair tempwater tempwave heightnotes
2018-Feb-17 19:00 179 -4.4
2018-Feb-17 18:45 179 -3.9
2018-Feb-17 18:30 179 -3.9
2018-Feb-17 18:15 179 -3.9
2018-Feb-17 18:00 179 -3.9
2018-Feb-17 17:45 179 -3.9
2018-Feb-17 17:30 179 -3.9
2018-Feb-17 17:15 179 -3.9
2018-Feb-17 17:00 179 -3.9
2018-Feb-17 16:45 179 -3.9
2018-Feb-17 16:30 169 -3.9
2018-Feb-17 16:15 169 -3.9
2018-Feb-17 16:00 247 -3.9
2018-Feb-17 15:45 320 -3.9
2018-Feb-17 15:30 321 -3.9
2018-Feb-17 15:15 321 -3.9
2018-Feb-17 15:00 321 -3.9
2018-Feb-17 14:45 321 -3.9
2018-Feb-17 14:30 321 -4.4
2018-Feb-17 14:15 321 -4.4
2018-Feb-17 14:00 321 -4.4
2018-Feb-17 13:45 320 -5.0
2018-Feb-17 13:30 320 -5.0
2018-Feb-17 13:15 320 -5.0
2018-Feb-17 13:00 320 -5.0
2018-Feb-17 12:45 320 -5.6
2018-Feb-17 12:30 320 -5.6
2018-Feb-17 12:15 320 -5.6
2018-Feb-17 12:00 320 -6.1
2018-Feb-17 11:45 320 -6.1
2018-Feb-17 11:30 320 -6.1
2018-Feb-17 11:15 320 -6.7
2018-Feb-17 11:00 351 -6.7
2018-Feb-17 10:45 335 -6.7
2018-Feb-17 10:30 360 -6.7
2018-Feb-17 10:15 360 -6.7
2018-Feb-17 10:00 360 -7.2
2018-Feb-17 09:45 360 -7.2
2018-Feb-17 09:30 031 -7.2
2018-Feb-17 09:15 047 -7.2
2018-Feb-17 09:00 047 -7.2
2018-Feb-17 08:45 047 -7.2
2018-Feb-17 08:30 047 -7.2
2018-Feb-17 08:15 047 -7.8
2018-Feb-17 08:00 047 -7.8
2018-Feb-17 07:45 047 -7.8
2018-Feb-17 07:30 047 -7.8
2018-Feb-17 07:15 047 -7.8
2018-Feb-17 07:00 046 -7.2
2018-Feb-17 06:45 046 -7.2
2018-Feb-17 06:30 046 -7.2
2018-Feb-17 06:15 046 -7.8
2018-Feb-17 06:00 046 -7.2
2018-Feb-17 05:45 046 -7.2
2018-Feb-17 05:30 046 -6.7
2018-Feb-17 05:15 046 -6.7
2018-Feb-17 05:00 046 -6.7
2018-Feb-17 04:45 046 -6.7
2018-Feb-17 04:30 046 -6.7
2018-Feb-17 04:14 046 -6.7
2018-Feb-17 03:59 046 -6.7
2018-Feb-17 03:44 046 -6.7
2018-Feb-17 03:29 046 -6.7
2018-Feb-17 03:14 036 -6.7
2018-Feb-17 02:59 033 -7.8
2018-Feb-17 02:44 148 -7.2
2018-Feb-17 02:29 148 -7.8
2018-Feb-17 02:14 148 -7.8
2018-Feb-17 01:59 148 -7.8
2018-Feb-17 01:44 148 -8.3
2018-Feb-17 01:29 148 -8.9
2018-Feb-17 01:14 148 -8.3
2018-Feb-17 00:59 148 -8.3
2018-Feb-17 00:44 148 -7.2
2018-Feb-17 00:29 148 -7.2
2018-Feb-17 00:14 148 -7.2
2018-Feb-16 23:59 148 -7.2
2018-Feb-16 23:44 151 -6.1
2018-Feb-16 23:29 151 -6.1
2018-Feb-16 23:14 151 -5.6
2018-Feb-16 22:59 151 -5.6
2018-Feb-16 22:44 151 -5.6
2018-Feb-16 22:29 151 -5.0
2018-Feb-16 22:14 151 -5.6
2018-Feb-16 21:59 151 -5.0
2018-Feb-16 21:44 151 -5.0
2018-Feb-16 21:29 151 -4.4
2018-Feb-16 21:14 151 -4.4
2018-Feb-16 20:59 151 -4.4
2018-Feb-16 20:44 038 -4.4
2018-Feb-16 20:29 038 -5.0
2018-Feb-16 20:14 038 -4.4
2018-Feb-16 19:59 038 -4.4
2018-Feb-16 19:44 038 -4.4
2018-Feb-16 19:29 038 -4.4
2018-Feb-16 19:14 038 -3.9
2018-Feb-16 18:59 038 -3.9
2018-Feb-16 18:43 038 -3.9
2018-Feb-16 18:28 038 -3.3
2018-Feb-16 18:13 038 -3.3
2018-Feb-16 17:58 038 -2.8
2018-Feb-16 17:43 038 -2.2
2018-Feb-16 17:28 038 -1.7
2018-Feb-16 17:13 038 -1.7
2018-Feb-16 16:58 038 -1.1
2018-Feb-16 16:43 038 -1.1
2018-Feb-16 16:28 038 -0.6
2018-Feb-16 16:13 038 -0.6
2018-Feb-16 15:58 038 -0.6
2018-Feb-16 15:43 038 -0.6
2018-Feb-16 15:28 038 -0.0
2018-Feb-16 15:13 037 -0.0
2018-Feb-16 14:58 044 -0.0
2018-Feb-16 14:43 063 0 gusting 3 0.6
2018-Feb-16 14:28 010 0.6
2018-Feb-16 14:13 027 2 gusting 5 -0.0
2018-Feb-16 13:58 029 0 gusting 4 -0.0
2018-Feb-16 13:43 047 0 gusting 2 -0.6
2018-Feb-16 13:28 026 1 gusting 3 -0.6
2018-Feb-16 13:13 033 0 gusting 3 -0.6
2018-Feb-16 12:58 005 0 gusting 3 -0.0
2018-Feb-16 12:43 342 0 gusting 4 0.6
2018-Feb-16 12:28 005 2 gusting 6 0.6
2018-Feb-16 12:13 009 1 gusting 7 0.6
2018-Feb-16 11:58 005 1 gusting 5 -0.0
2018-Feb-16 11:43 351 3 gusting 7 -0.0
2018-Feb-16 11:27 348 1 gusting 7 -0.0
2018-Feb-16 11:12 348 1 gusting 5 -0.0
2018-Feb-16 10:57 360 0 gusting 5 -0.0
2018-Feb-16 10:42 005 2 gusting 6 -0.0
2018-Feb-16 10:27 360 0 gusting 3 -0.0
2018-Feb-16 10:12 355 0 gusting 4 -0.6
2018-Feb-16 09:57 348 -0.6
2018-Feb-16 09:42 336 -0.6
2018-Feb-16 09:27 017 -0.6
2018-Feb-16 09:12 360 -0.6
2018-Feb-16 08:57 005 -0.6
2018-Feb-16 08:42 355 -0.6
2018-Feb-16 08:27 026 -0.6
2018-Feb-16 08:12 355 -1.1
2018-Feb-16 07:57 005 -1.1
2018-Feb-16 07:42 355 -1.1
2018-Feb-16 07:27 343 -1.1
2018-Feb-16 07:12 012 -1.1
2018-Feb-16 06:57 012 -1.1
2018-Feb-16 06:42 005 -1.1
2018-Feb-16 06:27 350 -1.1
2018-Feb-16 06:12 339 -1.1
2018-Feb-16 05:57 013 -1.1
2018-Feb-16 05:42 005 -1.1
2018-Feb-16 05:27 005 -1.1
2018-Feb-16 05:12 005 -1.1
2018-Feb-16 04:57 010 -1.1
2018-Feb-16 04:42 350 -1.1
2018-Feb-16 04:27 027 -1.1
2018-Feb-16 04:12 360 -1.1
2018-Feb-16 03:57 005 -1.1
2018-Feb-16 03:42 314 -1.1
2018-Feb-16 03:27 355 -1.1
2018-Feb-16 03:12 005 -1.1
2018-Feb-16 02:57 005 -1.1
2018-Feb-16 02:42 355 -1.1
2018-Feb-16 02:27 005 -1.1
2018-Feb-16 02:11 005 -1.1
2018-Feb-16 01:56 355 -1.1
2018-Feb-16 01:41 016 -1.1
2018-Feb-16 01:27 340 0 gusting 3 -1.1
2018-Feb-16 01:11 345 -1.1
2018-Feb-16 00:56 340 -1.1
2018-Feb-16 00:41 312 -1.1
2018-Feb-16 00:26 333 -1.1
2018-Feb-16 00:11 343 -1.1
2018-Feb-15 23:56 298 -1.1
2018-Feb-15 23:41 265 -1.1
2018-Feb-15 23:26 318 -1.1
2018-Feb-15 23:11 338 -1.1
2018-Feb-15 22:56 306 -1.1
2018-Feb-15 22:41 273 -1.1
2018-Feb-15 22:26 271 -1.1
2018-Feb-15 22:11 272 -1.1
2018-Feb-15 21:56 170 -1.1
2018-Feb-15 21:41 242 -1.1
2018-Feb-15 21:26 186 -1.1
2018-Feb-15 21:11 281 -1.1
2018-Feb-15 20:56 226 -1.1
2018-Feb-15 20:41 161 -1.1
2018-Feb-15 20:26 130 -1.1
2018-Feb-15 20:11 046 -1.1